KLM4522 HTZA-HTDA

Flight info

Callsign KLM4522
Flight time 0h 17m
Altitude 11000
Route XAKIG DUKBO1A
Aircraft B737/M-SDE2E3FGHIRWXY/LB1

Departure

Time 2026-05-07 16:36
Airport Abeid Amani Karume International Airport (HTZA)

Arrival

Time 2026-05-07 16:54
Airport Julius Nyerere International Airport (HTDA)
Time Latitude Longitude Altitude Speed Heading
2026-05-07 16:20 -6.21821 39.22194 59 ft 0 kts 264°
2026-05-07 16:31 -6.21821 39.22195 32 ft 2 kts 264°
2026-05-07 16:31 -6.21819 39.22221 52 ft 4 kts 263°
2026-05-07 16:31 -6.21816 39.22248 56 ft 4 kts 269°
2026-05-07 16:31 -6.21816 39.22275 57 ft 4 kts 278°
2026-05-07 16:32 -6.21818 39.22286 56 ft 1 kts 278°
2026-05-07 16:33 -6.21799 39.22281 55 ft 7 kts
2026-05-07 16:33 -6.21719 39.22310 58 ft 15 kts 355°
2026-05-07 16:34 -6.21602 39.22300 59 ft 18 kts 355°
2026-05-07 16:34 -6.21502 39.22330 59 ft 15 kts 75°
2026-05-07 16:34 -6.21443 39.22410 60 ft 17 kts 14°
2026-05-07 16:34 -6.21309 39.22401 60 ft 20 kts 354°
2026-05-07 16:35 -6.21172 39.22366 61 ft 21 kts 326°
2026-05-07 16:35 -6.21105 39.22365 60 ft 5 kts 84°
2026-05-07 16:35 -6.21129 39.22385 60 ft 2 kts 177°
2026-05-07 16:35 -6.21259 39.22397 62 ft 54 kts 174°
2026-05-07 16:36 -6.21909 39.22463 60 ft 129 kts 174°
2026-05-07 16:36 -6.22976 39.22560 260 ft 171 kts 172°
2026-05-07 16:36 -6.24217 39.22719 916 ft 187 kts 169°
2026-05-07 16:36 -6.25542 39.22920 1627 ft 201 kts 171°
2026-05-07 16:37 -6.26978 39.23096 2067 ft 215 kts 171°
2026-05-07 16:37 -6.28541 39.23296 2384 ft 233 kts 171°
2026-05-07 16:37 -6.30195 39.23519 2873 ft 247 kts 171°
2026-05-07 16:37 -6.31920 39.23753 3625 ft 252 kts 171°
2026-05-07 16:38 -6.33662 39.23988 4485 ft 254 kts 171°
2026-05-07 16:38 -6.35422 39.24226 5288 ft 257 kts 172°
2026-05-07 16:38 -6.37209 39.24467 6112 ft 261 kts 172°
2026-05-07 16:38 -6.39016 39.24711 6921 ft 264 kts 172°
2026-05-07 16:39 -6.40844 39.24958 7759 ft 267 kts 172°
2026-05-07 16:39 -6.42699 39.25208 8530 ft 271 kts 172°
2026-05-07 16:39 -6.44569 39.25460 8906 ft 272 kts 172°
2026-05-07 16:39 -6.46434 39.25711 8996 ft 275 kts 172°
2026-05-07 16:40 -6.48355 39.25970 9012 ft 275 kts 172°
2026-05-07 16:40 -6.50225 39.26222 9018 ft 275 kts 172°
2026-05-07 16:40 -6.52117 39.26477 9027 ft 274 kts 172°
2026-05-07 16:40 -6.54009 39.26732 9028 ft 275 kts 172°
2026-05-07 16:41 -6.55903 39.26988 9024 ft 275 kts 172°
2026-05-07 16:41 -6.57797 39.27243 9028 ft 275 kts 172°
2026-05-07 16:41 -6.59693 39.27499 9036 ft 275 kts 172°
2026-05-07 16:41 -6.61589 39.27754 9034 ft 275 kts 172°
2026-05-07 16:42 -6.63001 39.27945 9037 ft 276 kts 172°
2026-05-07 16:42 -6.64910 39.27958 9024 ft 277 kts 192°
2026-05-07 16:42 -6.66661 39.27177 9035 ft 278 kts 216°
2026-05-07 16:42 -6.68091 39.25866 9046 ft 279 kts 223°
2026-05-07 16:43 -6.69454 39.24472 9042 ft 280 kts 224°
2026-05-07 16:43 -6.70820 39.23073 9043 ft 280 kts 224°
2026-05-07 16:43 -6.72193 39.21684 9050 ft 280 kts 223°
2026-05-07 16:43 -6.73571 39.20299 9050 ft 281 kts 223°
2026-05-07 16:44 -6.74956 39.18911 9043 ft 281 kts 224°
2026-05-07 16:44 -6.76356 39.17511 8694 ft 283 kts 223°
2026-05-07 16:44 -6.77742 39.16124 8407 ft 280 kts 223°
2026-05-07 16:44 -6.79115 39.14751 8121 ft 277 kts 224°
2026-05-07 16:45 -6.80469 39.13395 7829 ft 273 kts 224°
2026-05-07 16:45 -6.81810 39.12053 7547 ft 271 kts 223°
2026-05-07 16:45 -6.83144 39.10718 7266 ft 270 kts 223°
2026-05-07 16:45 -6.84470 39.09390 6984 ft 268 kts 223°
2026-05-07 16:46 -6.85789 39.08070 6709 ft 267 kts 223°
2026-05-07 16:46 -6.87103 39.06754 6435 ft 266 kts 223°
2026-05-07 16:46 -6.88414 39.05441 6144 ft 266 kts 223°
2026-05-07 16:46 -6.89722 39.04132 5851 ft 265 kts 223°
2026-05-07 16:47 -6.91021 39.02831 5557 ft 261 kts 223°
2026-05-07 16:47 -6.92283 39.01568 5260 ft 250 kts 223°
2026-05-07 16:47 -6.93664 39.00638 4970 ft 233 kts 196°
2026-05-07 16:47 -6.95206 39.00517 4677 ft 217 kts 170°
2026-05-07 16:48 -6.96591 39.00988 4373 ft 206 kts 150°
2026-05-07 16:48 -6.97695 39.01880 4056 ft 202 kts 136°
2026-05-07 16:48 -6.98684 39.02870 3736 ft 200 kts 135°
2026-05-07 16:48 -6.99662 39.03852 3424 ft 197 kts 135°
2026-05-07 16:49 -7.00532 39.04890 3173 ft 191 kts 113°
2026-05-07 16:49 -7.00521 39.06181 3172 ft 192 kts 68°
2026-05-07 16:49 -6.99866 39.07367 3153 ft 194 kts 62°
2026-05-07 16:49 -6.99121 39.08488 3104 ft 194 kts 55°
2026-05-07 16:50 -6.98283 39.09568 2894 ft 197 kts 53°
2026-05-07 16:50 -6.97395 39.10582 2668 ft 194 kts 49°
2026-05-07 16:50 -6.96461 39.11542 2417 ft 189 kts 47°
2026-05-07 16:50 -6.95554 39.12454 2164 ft 179 kts 48°
2026-05-07 16:51 -6.94710 39.13302 1981 ft 162 kts 48°
2026-05-07 16:51 -6.93938 39.14079 1748 ft 151 kts 48°
2026-05-07 16:51 -6.93215 39.14809 1564 ft 146 kts 49°
2026-05-07 16:51 -6.92513 39.15516 1365 ft 141 kts 48°
2026-05-07 16:52 -6.91818 39.16216 1200 ft 143 kts 48°
2026-05-07 16:52 -6.91115 39.16925 1021 ft 142 kts 47°
2026-05-07 16:52 -6.90416 39.17628 823 ft 141 kts 47°
2026-05-07 16:52 -6.89735 39.18320 634 ft 139 kts 48°
2026-05-07 16:53 -6.89042 39.19029 427 ft 142 kts 47°
2026-05-07 16:53 -6.88356 39.19722 231 ft 138 kts 47°
2026-05-07 16:53 -6.87703 39.20375 180 ft 117 kts 45°
2026-05-07 16:53 -6.87261 39.20812 177 ft 65 kts 45°
2026-05-07 16:54 -6.87012 39.21063 175 ft 42 kts 45°
2026-05-07 16:54 -6.86845 39.21230 175 ft 30 kts 44°
2026-05-07 16:54 -6.86735 39.21226 176 ft 16 kts 301°
2026-05-07 16:54 -6.86735 39.21119 176 ft 15 kts 269°
2026-05-07 16:55 -6.86671 39.21065 176 ft 13 kts 24°
2026-05-07 16:55 -6.86604 39.21079 176 ft 11 kts 316°
2026-05-07 16:55 -6.86568 39.21043 176 ft 0 kts 315°